FW1564 Weather Reports


Display with metric or nautical units.
time (UTC)temp
F
wind
direction
speed
MPH
gust
MPH
rain 1hr
in
rain 24hr
in
rain mn
in
humidity
%
barometer
mb
20260905033758 65 345 3.0 6.0 0.00 0.00 0.00 85 1019.5
20260905033239 65 330 3.0 7.0 0.00 0.00 0.00 84 1019.7
20260905032239 65 341 4.0 7.0 0.00 0.00 0.00 84 1019.9
20260905030758 65 330 3.0 6.0 0.00 0.00 0.00 85 1020.0
20260905025758 65 327 3.0 6.0 0.00 0.00 0.00 85 1019.9
20260905024758 65 346 3.0 4.0 0.00 0.00 0.00 84 1020.2
20260905023759 65 334 3.0 7.0 0.00 0.00 0.00 83 1020.0
20260905022758 66 336 5.0 7.0 0.00 0.00 0.00 84 1020.1
20260905021758 66 345 1.0 6.0 0.00 0.00 0.00 84 1020.3
20260905020759 66 326 4.0 6.0 0.00 0.00 0.00 84 1020.4
20260905020245 66 340 5.0 7.0 0.00 0.00 0.00 83 1020.4
20260905014758 65 8 4.0 6.0 0.00 0.00 0.00 82 1020.7
20260905013758 65 337 4.0 6.0 0.00 0.00 0.00 82 1020.7
20260905013247 66 343 4.0 6.0 0.00 0.00 0.00 82 1020.7
20260905011758 66 333 4.0 6.0 0.00 0.00 0.00 82 1020.9
20260905010758 67 342 3.0 4.0 0.00 0.00 0.00 83 1021.1
20260905005758 67 342 2.0 2.0 0.00 0.00 0.00 83 1021.0
20260905005238 67 352 1.0 2.0 0.00 0.00 0.00 84 1021.5
20260905003758 67 15 0.0 2.0 0.00 0.00 0.00 85 1021.2
20260905002758 67 351 1.0 2.0 0.00 0.00 0.00 84 1021.3
20260905001757 66 352 1.0 2.0 0.00 0.00 0.00 84 1021.5
20260905001237 66 342 1.0 2.0 0.00 0.00 0.00 83 1021.3
20260905000238 66 339 1.0 2.0 0.00 0.00 0.00 83 1021.5
20260904234758 66 355 1.0 2.0 0.00 0.00 0.00 83 1021.5
20260904233758 65 337 1.0 3.0 0.00 0.00 0.00 84 1021.3
20260904232758 66 355 2.0 4.0 0.00 0.00 0.00 85 1021.2
20260904231758 66 348 2.0 3.0 0.00 0.00 0.00 83 1021.3
20260904230758 67 26 1.0 4.0 0.00 0.00 0.00 84 1021.2
20260904225758 67 333 2.0 3.0 0.00 0.00 0.00 84 1021.5
20260904224758 66 343 1.0 4.0 0.00 0.00 0.00 84 1021.1
20260904223759 66 344 2.0 4.0 0.00 0.00 0.00 83 1021.5
20260904222758 66 346 2.0 4.0 0.00 0.00 0.00 82 1021.5
20260904221758 66 334 2.0 4.0 0.00 0.00 0.00 83 1021.3
20260904220759 66 351 3.0 6.0 0.00 0.00 0.00 84 1021.7
20260904215758 67 340 2.0 6.0 0.00 0.00 0.00 85 1021.6
20260904214758 67 328 2.0 4.0 0.00 0.00 0.00 86 1021.5
20260904213758 68 6 0.0 1.0 0.00 0.00 0.00 87 1021.3
20260904212758 68 44 1.0 1.0 0.00 0.00 0.00 88 1021.5
20260904211758 68 109 0.0 2.0 0.00 0.00 0.00 88 1021.3
20260904210759 68 84 0.0 1.0 0.00 0.00 0.00 87 1021.6
20260904205758 68 15 0.0 1.0 0.00 0.00 0.00 88 1021.5
20260904204758 67 25 0.0 1.0 0.00 0.00 0.00 87 1021.3
20260904203757 67 329 0.0 1.0 0.00 0.00 0.00 88 1021.2
20260904202759 67 25 0.0 1.0 0.00 0.00 0.00 89 1021.0
20260904201758 66 12 0.0 2.0 0.00 0.00 0.00 89 1020.8
20260904200759 66 345 0.0 2.0 0.00 0.00 0.00 89 1020.7
20260904195757 67 80 0.0 2.0 0.00 0.00 0.00 90 1020.5
20260904194758 67 339 0.0 1.0 0.00 0.00 0.00 90 1020.3
20260904193758 67 37 0.0 1.0 0.00 0.00 0.00 89 1020.0
20260904192757 68 143 0.0 1.0 0.00 0.00 0.00 89 1020.0
20260904191758 68 111 1.0 2.0 0.00 0.00 0.00 89 1020.0
20260904190758 68 128 1.0 4.0 0.00 0.00 0.00 88 1020.1
20260904185758 68 141 2.0 3.0 0.00 0.00 0.00 88 1019.9
20260904184758 69 164 1.0 3.0 0.00 0.00 0.00 87 1020.1
20260904183759 69 195 0.0 6.0 0.00 0.00 0.00 86 1019.7
20260904182758 69 133 2.0 3.0 0.00 0.00 0.00 86 1019.8
20260904181758 69 180 1.0 7.0 0.00 0.00 0.00 86 1019.9
20260904180758 69 165 3.0 6.0 0.00 0.00 0.00 86 1019.9
20260904180235 70 119 3.0 6.0 0.00 0.00 0.00 85 1019.9
20260904174801 70 119 4.0 6.0 0.00 0.00 0.00 84 1019.9
20260904173758 70 164 3.0 6.0 0.00 0.00 0.00 84 1019.7
20260904172758 71 120 1.0 6.0 0.00 0.00 0.00 83 1019.7
20260904171758 71 121 4.0 6.0 0.00 0.00 0.00 82 1019.8
20260904170758 71 151 2.0 8.0 0.00 0.00 0.00 82 1019.9
20260904170232 72 178 2.0 7.0 0.00 0.00 0.00 80 1019.9
20260904164758 73 157 4.0 8.0 0.00 0.00 0.00 78 1020.0
20260904163758 73 161 4.0 7.0 0.00 0.00 0.00 77 1019.7
20260904162757 73 108 3.0 8.0 0.00 0.00 0.00 79 1020.0
20260904161757 74 109 4.0 8.0 0.00 0.00 0.00 77 1020.0
20260904160758 73 219 3.0 7.0 0.00 0.00 0.00 78 1020.0
20260904155758 72 185 3.0 7.0 0.00 0.00 0.00 81 1020.0
20260904155255 71 105 3.0 7.0 0.00 0.00 0.00 81 1020.4
20260904153758 71 103 2.0 7.0 0.00 0.00 0.00 83 1020.5
20260904152759 71 193 3.0 6.0 0.00 0.00 0.00 82 1020.7
20260904151802 70 183 2.0 8.0 0.00 0.00 0.00 84 1020.9
20260904150758 70 109 4.0 7.0 0.00 0.00 0.00 83 1020.7
20260904150240 70 126 2.0 4.0 0.00 0.00 0.00 83 1021.2
20260904144758 70 180 3.0 6.0 0.00 0.00 0.00 83 1021.0
20260904143758 70 151 2.0 7.0 0.00 0.00 0.00 84 1021.1
20260904142759 70 132 2.0 7.0 0.00 0.00 0.00 83 1021.1
20260904141758 71 121 3.0 7.0 0.00 0.00 0.00 82 1021.2
20260904140758 71 144 3.0 8.0 0.00 0.00 0.00 81 1021.1
20260904140237 71 111 4.0 8.0 0.00 0.00 0.00 80 1021.1
20260904134758 72 212 3.0 8.0 0.00 0.00 0.00 79 1021.1
20260904133758 73 163 3.0 8.0 0.00 0.00 0.00 79 1021.0
20260904132759 73 122 4.0 7.0 0.00 0.00 0.00 77 1021.1
20260904131758 73 155 5.0 8.0 0.00 0.00 0.00 77 1021.0
20260904130758 73 111 5.0 10.0 0.00 0.00 0.00 78 1021.0
20260904125758 73 104 5.0 9.0 0.00 0.00 0.00 77 1021.1
20260904124759 75 167 6.0 11.0 0.00 0.00 0.00 73 1021.3
20260904123758 75 163 4.0 10.0 0.00 0.00 0.00 75 1021.3
20260904122758 75 122 3.0 10.0 0.00 0.00 0.00 73 1021.0
20260904121757 75 251 3.0 8.0 0.00 0.00 0.00 72 1021.0
20260904121236 75 108 3.0 6.0 0.00 0.00 0.00 73 1021.3
20260904115759 73 169 2.0 8.0 0.00 0.00 0.00 76 1021.7
20260904115720 74 114 4.0 7.0 0.00 0.00 0.00 74 1021.7
20260904113758 75 120 5.0 10.0 0.00 0.00 0.00 72 1021.6
20260904113238 74 135 5.0 9.0 0.00 0.00 0.00 74 1021.7
20260904111758 75 171 4.0 9.0 0.00 0.00 0.00 72 1021.5
20260904111238 74 119 5.0 8.0 0.00 0.00 0.00 72 1021.6
20260904105758 73 153 3.0 8.0 0.00 0.00 0.00 75 1021.6
20260904104758 73 136 4.0 9.0 0.00 0.00 0.00 75 1021.6
20260904103757 74 99 2.0 10.0 0.00 0.00 0.00 75 1021.3
20260904103716 72 250 0.0 4.0 0.00 0.00 0.00 76 1021.6
20260904101758 71 65 1.0 6.0 0.00 0.00 0.00 78 1021.6
20260904100758 71 122 3.0 6.0 0.00 0.00 0.00 77 1021.6
20260904095757 70 124 2.0 4.0 0.00 0.00 0.00 79 1021.3
20260904095238 70 168 1.0 6.0 0.00 0.00 0.00 80 1021.5
20260904093759 72 138 4.0 8.0 0.00 0.00 0.00 76 1021.5
20260904092758 72 221 0.0 6.0 0.00 0.00 0.00 76 1021.2
20260904091758 74 123 1.0 3.0 0.00 0.00 0.00 73 1021.3
20260904090757 73 100 2.0 2.0 0.00 0.00 0.00 74 1021.1
20260904085758 70 76 0.0 2.0 0.00 0.00 0.00 77 1021.3
20260904084758 69 33 0.0 3.0 0.00 0.00 0.00 75 1021.2
20260904083758 67 42 2.0 2.0 0.00 0.00 0.00 74 1021.2
20260904082758 67 324 0.0 2.0 0.00 0.00 0.00 78 1021.2
20260904081757 65 340 3.0 4.0 0.00 0.00 0.00 76 1021.5
20260904080758 63 339 1.0 4.0 0.00 0.00 0.00 76 1021.2
20260904075758 63 346 3.0 4.0 0.00 0.00 0.00 76 1021.1
20260904074758 62 331 4.0 4.0 0.00 0.00 0.00 76 1021.0
20260904073758 63 344 3.0 4.0 0.00 0.00 0.00 79 1021.1
20260904073235 62 317 3.0 4.0 0.00 0.00 0.00 82 1020.9
20260904071758 62 2 3.0 4.0 0.00 0.00 0.00 83 1021.1
20260904070758 63 353 2.0 6.0 0.00 0.00 0.00 86 1020.8
20260904070243 64 344 3.0 4.0 0.00 0.00 0.00 85 1020.8
20260904065233 64 353 3.0 4.0 0.00 0.00 0.00 83 1020.9
20260904063757 62 343 4.0 4.0 0.00 0.00 0.00 79 1020.8
20260904062758 62 329 3.0 4.0 0.00 0.00 0.00 76 1020.5
20260904061757 62 342 2.0 7.0 0.00 0.00 0.00 78 1020.4
20260904060759 62 339 2.0 4.0 0.00 0.00 0.00 76 1020.4
20260904055758 62 1 4.0 6.0 0.00 0.00 0.00 75 1020.3
20260904054758 63 339 2.0 6.0 0.00 0.00 0.00 81 1020.3
20260904053758 62 342 4.0 6.0 0.00 0.00 0.00 82 1020.1
20260904053236 62 334 3.0 4.0 0.00 0.00 0.00 85 1020.2
20260904051758 63 358 3.0 6.0 0.00 0.00 0.00 87 1020.2
20260904050758 63 318 3.0 4.0 0.00 0.00 0.00 89 1020.0
20260904045758 62 343 3.0 4.0 0.00 0.00 0.00 87 1020.1
20260904045235 62 343 2.0 4.0 0.00 0.00 0.00 85 1020.1
20260904043758 63 343 3.0 4.0 0.00 0.00 0.00 86 1020.2
20260904042758 63 343 2.0 4.0 0.00 0.00 0.00 87 1020.1
20260904041758 63 353 4.0 6.0 0.00 0.00 0.00 88 1019.9
20260904040758 64 340 2.0 4.0 0.00 0.00 0.00 89 1020.0
20260904035758 63 341 4.0 4.0 0.00 0.00 0.00 87 1020.4
20260904034758 63 335 2.0 6.0 0.00 0.00 0.00 85 1020.4